CW7520 Weather Reports


Display with metric or nautical units.
time (UTC)temp
F
wind
direction
speed
MPH
gust
MPH
rain 1hr
in
rain 24hr
in
rain mn
in
humidity
%
barometer
mb
20260505094508 60 0 0.0 0.0 0.00 0.00 0.00 69 1022.4
20260505093814 60 0 0.0 0.0 0.00 0.00 0.00 69 1022.4
20260505092708 60 0 0.0 0.0 0.00 0.00 0.00 68 1022.4
20260505091814 60 0 0.0 0.0 0.00 0.00 0.00 68 1022.4
20260505090908 60 0 0.0 0.0 0.00 0.00 0.00 68 1022.4
20260505090214 60 0 0.0 0.0 0.00 0.00 0.00 67 1022.4
20260505085403 60 0 0.0 0.0 0.00 0.00 0.00 67 1022.4
20260505084504 60 0 0.0 0.0 0.00 0.00 0.00 67 1022.3
20260505083604 60 0 0.0 0.0 0.00 0.00 0.00 67 1022.2
20260505082708 60 0 0.0 0.0 0.00 0.00 0.00 68 1022.1
20260505081803 60 0 0.0 0.0 0.00 0.00 0.00 67 1022.0
20260505080903 61 0 0.0 0.0 0.00 0.00 0.00 67 1021.9
20260505080008 61 0 0.0 0.0 0.00 0.00 0.00 67 1021.8
20260505075408 61 0 0.0 0.0 0.00 0.00 0.00 67 1021.7
20260505074508 61 0 0.0 0.0 0.00 0.00 0.00 66 1021.7
20260505073603 61 0 0.0 0.0 0.00 0.00 0.00 66 1021.6
20260505072703 61 0 0.0 0.0 0.00 0.00 0.00 66 1021.4
20260505071803 61 0 0.0 0.0 0.00 0.00 0.00 66 1021.4
20260505070908 62 0 0.0 0.0 0.00 0.00 0.00 66 1021.4
20260505070008 62 0 0.0 0.0 0.00 0.00 0.00 66 1021.3
20260505065419 62 0 0.0 0.0 0.00 0.00 0.00 66 1021.2
20260505064714 62 0 0.0 0.0 0.00 0.00 0.00 66 1021.1
20260505063823 62 0 0.0 0.0 0.00 0.00 0.00 65 1021.1
20260505062708 62 0 0.0 0.0 0.00 0.00 0.00 65 1021.0
20260505061803 62 0 0.0 0.0 0.00 0.00 0.00 65 1021.0
20260505060903 62 0 0.0 0.0 0.00 0.00 0.00 65 1020.9
20260505060218 62 0 0.0 0.0 0.00 0.00 0.00 64 1020.9
20260505055404 62 0 0.0 0.0 0.00 0.00 0.00 64 1020.8
20260505054504 62 0 0.0 0.0 0.00 0.00 0.00 64 1020.7
20260505053608 62 0 0.0 0.0 0.00 0.00 0.00 64 1020.6
20260505052708 63 0 0.0 0.0 0.00 0.00 0.00 63 1020.6
20260505051803 63 0 0.0 0.0 0.00 0.00 0.00 63 1020.4
20260505050904 63 0 0.0 0.0 0.00 0.00 0.00 63 1020.3
20260505050218 63 0 0.0 0.0 0.00 0.00 0.00 63 1020.3
20260505040904 62 0 0.0 0.0 0.00 0.00 0.00 62 1019.9
20260505040004 62 0 0.0 0.0 0.00 0.00 0.00 62 1019.9
20260505035408 62 0 0.0 0.0 0.00 0.00 0.00 62 1019.9
20260505034509 63 0 0.0 0.0 0.00 0.00 0.00 60 1019.9
20260505033814 63 0 0.0 0.0 0.00 0.00 0.00 60 1019.9
20260505032703 63 0 0.0 0.0 0.00 0.00 0.00 60 1019.9
20260505031808 63 0 0.0 0.0 0.00 0.00 0.00 59 1019.9
20260505031114 63 0 0.0 0.0 0.00 0.00 0.00 61 1019.9
20260505030008 62 0 0.0 0.0 0.00 0.00 0.00 60 1019.9
20260505025405 62 0 0.0 0.0 0.00 0.00 0.00 60 1020.0
20260505024508 62 0 0.0 0.0 0.00 0.00 0.00 60 1020.0
20260505023604 62 0 0.0 0.0 0.00 0.00 0.00 60 1020.1
20260505022704 62 0 0.0 0.0 0.00 0.00 0.00 62 1020.1
20260505021804 62 0 0.0 0.0 0.00 0.00 0.00 62 1020.2
20260505020908 62 0 0.0 0.0 0.00 0.00 0.00 63 1020.2
20260505020004 62 0 0.0 0.0 0.00 0.00 0.00 62 1020.3
20260505015403 62 0 0.0 0.0 0.00 0.00 0.00 61 1020.4
20260505014508 62 0 0.0 0.0 0.00 0.00 0.00 62 1020.4
20260505013604 63 0 0.0 0.0 0.00 0.00 0.00 60 1020.5
20260505012918 63 0 0.0 0.0 0.00 0.00 0.00 60 1020.5
20260505011804 62 0 0.0 0.0 0.00 0.00 0.00 64 1020.4
20260505010914 62 0 0.0 0.0 0.00 0.00 0.00 64 1020.4
20260505010004 62 0 0.0 0.0 0.00 0.00 0.00 64 1020.4
20260505005614 62 0 0.0 0.0 0.00 0.00 0.00 65 1020.4
20260505004508 61 0 0.0 0.0 0.00 0.00 0.00 67 1020.3
20260505003608 61 0 0.0 0.0 0.00 0.00 0.00 66 1020.2
20260505002704 61 0 0.0 0.0 0.00 0.00 0.00 67 1020.1
20260505001804 60 0 0.0 0.0 0.00 0.00 0.00 68 1020.0
20260505000908 60 0 0.0 0.0 0.00 0.00 0.00 68 1019.9
20260505000008 60 0 0.0 0.0 0.00 0.00 0.00 71 1019.9
20260504235409 59 0 0.0 0.0 0.00 0.00 0.00 73 1019.8
20260504234503 58 0 0.0 0.0 0.00 0.00 0.00 74 1019.9
20260504233825 58 0 0.0 0.0 0.00 0.00 0.00 75 1019.9
20260504232708 58 0 0.0 0.0 0.00 0.00 0.00 77 1019.9
20260504231808 57 0 0.0 0.0 0.00 0.00 0.00 79 1019.8
20260504230903 56 0 0.0 0.0 0.00 0.00 0.00 83 1019.7
20260504230008 56 0 0.0 0.0 0.00 0.00 0.00 85 1019.6
20260504225613 55 0 0.0 0.0 0.00 0.00 0.00 86 1019.6
20260504224508 55 0 0.0 0.0 0.00 0.00 0.00 87 1019.5
20260504223613 54 0 0.0 0.0 0.00 0.00 0.00 87 1019.4
20260504222913 54 0 0.0 0.0 0.00 0.00 0.00 87 1019.3
20260504221813 54 0 0.0 0.0 0.00 0.00 0.00 86 1019.1
20260504220908 54 0 0.0 0.0 0.00 0.00 0.00 86 1018.9
20260504220008 54 0 0.0 0.0 0.00 0.00 0.00 86 1018.8
20260504215404 54 0 0.0 0.0 0.00 0.00 0.00 86 1018.7
20260504214508 54 0 0.0 0.0 0.00 0.00 0.00 86 1018.5
20260504213603 54 0 0.0 0.0 0.00 0.00 0.00 85 1018.3
20260504212703 54 0 0.0 0.0 0.00 0.00 0.00 85 1018.1
20260504211804 54 0 0.0 0.0 0.00 0.00 0.00 85 1017.9
20260504210908 54 0 0.0 0.0 0.00 0.00 0.00 85 1017.8
20260504210008 55 0 0.0 0.0 0.00 0.00 0.00 85 1017.7
20260504205405 55 0 0.0 0.0 0.00 0.00 0.00 85 1017.7
20260504204504 55 0 0.0 0.0 0.00 0.00 0.00 85 1017.6
20260504203605 55 0 0.0 0.0 0.00 0.00 0.00 85 1017.4
20260504202703 55 0 0.0 0.0 0.00 0.00 0.00 85 1017.2
20260504201803 55 0 0.0 0.0 0.00 0.00 0.00 84 1017.0
20260504200905 55 0 0.0 0.0 0.00 0.00 0.00 84 1016.8
20260504200004 56 0 0.0 0.0 0.00 0.00 0.00 84 1016.7
20260504195404 56 0 0.0 0.0 0.00 0.00 0.00 83 1016.7
20260504194504 56 0 0.0 0.0 0.00 0.00 0.00 83 1016.7
20260504193605 56 0 0.0 0.0 0.00 0.00 0.00 82 1016.6
20260504192705 56 0 0.0 0.0 0.00 0.00 0.00 81 1016.6
20260504191805 56 0 0.0 0.0 0.00 0.00 0.00 80 1016.5
20260504190903 56 0 0.0 0.0 0.00 0.00 0.00 79 1016.3
20260504190008 56 0 0.0 0.0 0.00 0.00 0.00 79 1016.2
20260504185614 56 0 0.0 0.0 0.00 0.00 0.00 79 1016.1
20260504184503 56 0 0.0 0.0 0.00 0.00 0.00 79 1016.0
20260504183605 56 0 0.0 0.0 0.00 0.00 0.00 79 1015.9
20260504182914 56 0 0.0 0.0 0.00 0.00 0.00 79 1015.8
20260504181803 56 0 0.0 0.0 0.00 0.00 0.00 78 1015.5
20260504180905 56 0 0.0 0.0 0.00 0.00 0.00 78 1015.5
20260504180004 56 0 0.0 0.0 0.00 0.00 0.00 77 1015.4
20260504175405 57 0 0.0 0.0 0.00 0.00 0.00 77 1015.4
20260504174505 57 0 0.0 0.0 0.00 0.00 0.00 77 1015.3
20260504173604 57 0 0.0 0.0 0.00 0.00 0.00 77 1015.3
20260504172704 57 0 0.0 0.0 0.00 0.00 0.00 76 1015.3
20260504171803 57 0 0.0 0.0 0.00 0.00 0.00 76 1015.3
20260504170904 57 0 0.0 0.0 0.00 0.00 0.00 76 1015.2
20260504160219 56 0 0.0 0.0 0.00 0.00 0.00 79 1014.9
20260504150903 57 0 0.0 0.0 0.00 0.00 0.00 78 1014.6
20260504140904 58 0 0.0 0.0 0.00 0.00 0.00 77 1014.1